Location: Passau
(48.5830°N, 13.4830°E)
Time: 19:46:04
(UTC+02:00)

S-56A Canister/Altair - Pass Details

Date: 24 May 2024
Orbit: 637 x 2489 km, 38.9° (Epoch: 15 June)

Event Time Altitude Azimuth Distance (km) Brightness Sun altitude
Rises 12:16:54 0° 273° (W) 4,677 11.4 60.8°
Reaches altitude 10° 12:21:26 10° 258° (WSW) 3,312 10.9 61.1°
Maximum altitude 12:26:32 19° 218° (SW) 2,299 10.5 61.4°
Drops below altitude 10° 12:30:37 10° 175° (S) 2,549 10.8 61.6°
Sets 12:33:32 0° 156° (SSE) 3,274 11.2 61.7°
